{"data":{"norad_id":43770,"intl_designator":"2018-099N","name":"FOX-1CLIFF (AO-95)","alt_names":[],"object_type":"PAYLOAD","status":"ACTIVE","operator":null,"country":"US","launch_date":"2018-12-03","launch_site_code":"AFWTR","launch_vehicle":null,"mission":null,"orbit_class":"UNKNOWN","rcs_meters":null,"size_class":null,"mass_kg":null,"dimensions":null,"purposes":["comms"],"wikipedia_slug":null,"has_3d_model":false,"image_url":null,"decayed_at":null,"tle_current":{"epoch":"2026-05-25T03:12:44.869824Z","epoch_age_seconds":63593,"freshness":"FRESH","line1":"1 43770U 18099N   26145.13385266  .00010577  00000+0  41181-3 0  9997","line2":"2 43770  97.4400 205.4732 0010195  75.0152 285.2214 15.26130177409703","mean_motion":15.26130177,"eccentricity":0.0010195,"inclination_deg":97.44,"raan_deg":205.4732,"arg_perigee_deg":75.0152,"mean_anomaly_deg":285.2214,"bstar":0.00041181,"rev_number":40970,"period_min":94.356302083659,"perigee_km":480.39441548914,"apogee_km":494.39323283961,"semimajor_km":6865.5308241644,"source":"CELESTRAK","updated_at":"2026-05-25T13:38:23.288779Z"}}}